Airfield :
LOGIN :

Register | Disclaimer

   EN    FR    IT 

 










Legend :    VFR   Marginal VFR   IFR   Intensive IFR   Very Intensive IFR
Visi :
Ceiling :
>= 8 km
>= 3000ft
5 to 8 km
1000 to 3000 ft
1500m to 5 km
500 to 1000 ft
800 to 1500m
200 to 500 ft
< 800m
< 200 ft
Symbols :   Thunderstorms  Fog  Heavy snow  Heavy precipitations  Wind > 20 kt
SIGMETs :     Misc.  Thunderstorms  Icing  Turbulence  Mountain Waves  Volcanic Ashes







- Airport Elevation : 75 ft
- IATA code : YEO


EGDY - RNAS Yeovilton

CURRENT METAR :
  • 200650Z 22009KT 9999 BKN022 11/08 Q1017 WHT TEMPO 4000 -RADZ SCT010 GRN

EXPIRED METARs :
  • 200550Z 22007KT 8000 -RA OVC026 10/08 Q1018 BLU
  • 200450Z 21010KT 9999 OVC030 11/07 Q1018 BLU

TAF TAF EGDY
Valid from the 20 at 07:00 until the 20 at 16:00 UTC


200535Z 2007/2016 24015G25KT 9999 BKN030
PROB30
TEMPO 2007/2016 4000 -RADZ SCT010 BKN020
No reported NOTAMs for that airfield.



MET'MAP, your aeronautical weather chart ! - Copyright ORBIFLY December 2007 - Disclaimer

ORBIFLY MET'MAP TEAM :

Programming & Development : Alexandra Zaïnal
Concept & Development : Baudouin d'Aumeries
Co-Development & Prog : Marc-Olivier Méhu
Technical & hardware support : Manuel Goepfert

Contact : metmap@orbifly.com




SOURCES & CREDITS :

   NOAA